FORMOSAT-5 (42920 NORAD) Tracking and Keplerian Element Data

This shows tracking and keplerian element data for the satellite.

Feedback or suggestion? Click here.




ElementValue
Catalog42920
NameFORMOSAT-5
Epoch Orbit10953
Epoch Day262.16577943
Epoch Year2019
RAAN339.4681
Inclination98.325
Eccentricity0.0011796
Argument of Perigee85.5101
Mean Anonmoly274.7447
Mean Motion14.50842765
Decay Rate-5.3E-07
L11 42920U 17049A 19262.16577943 -.00000053 00000-0 -20753-5 0 9992
L22 42920 98.3250 339.4681 0011796 85.5101 274.7447 14.50842765109539

Live tracking and technical data element details for FORMOSAT-5 (NORAD 42920). FORMOSAT-5 can be tracked NOW for your location showing map with azimuth and elevation plus other details from your city location.

Track the satellite on the map from your city or location and see movement details for azimuth, elevation, latitude, longitude, range, height, and movement on the map or in text.







IsCatalogInMostPopularTable: catalog: 42920, numindb: 338
Update: records affected: 1



GetName: 42920 FORMOSAT-5

Hit Count: updated at: Thu, 19 Sep 2019 16:35:48 GMT